Wind_Speed
49 49 48 48 48 48 49 50 51 50 48 47 46 46 45 46 47 48 48 48 49 49 49 49 48 48 49 49 50 50 50 50 50 50 51 51 51 50
50 50 50 49 49 49 49 50 51 51 50 48 47 47 47 47 47 48 49 50 50 50 49 48 48 48 49 49 50 50 50 51 51 52 51 51 50 50
50 50 50 49 48 49 49 49 49 50 51 49 48 48 48 48 48 49 50 51 51 50 49 48 48 49 50 50 50 50 51 52 52 52 51 51 50 50
48 48 49 49 48 48 48 48 49 49 50 50 49 49 48 48 48 49 50 51 51 50 49 49 49 49 49 50 50 52 53 52 52 51 51 51 50 50
48 48 48 48 47 48 49 49 50 50 50 50 49 48 48 48 48 48 50 50 50 49 49 48 48 49 50 50 51 52 52 52 52 51 51 51 50 49
48 47 47 47 47 48 48 49 49 49 50 51 51 50 49 49 48 47 48 48 47 47 48 48 48 49 50 51 51 51 52 51 51 52 52 50 49 48
46 46 46 47 48 48 48 48 48 49 50 50 50 51 50 50 50 49 48 47 45 46 47 48 49 50 50 51 51 51 51 50 50 51 50 48 46 45
45 46 47 48 48 48 47 46 47 48 49 49 49 49 49 49 49 49 47 46 44 44 46 47 49 50 50 51 51 51 50 49 48 48 47 45 44 43
46 46 46 46 47 46 45 46 47 48 48 48 48 49 49 49 48 47 46 45 44 45 46 46 47 48 49 49 49 48 46 46 45 45 44 43 41 39
45 45 45 45 46 46 45 46 45 45 46 47 48 48 48 47 46 47 47 45 44 44 45 46 46 48 48 48 47 46 45 44 43 42 41 41 40 38
44 44 44 44 45 46 46 46 46 46 45 46 46 46 45 45 46 46 46 45 43 42 43 44 45 46 45 44 44 43 42 41 40 40 40 40 39 38
44 43 43 44 45 46 46 46 46 46 45 44 44 43 42 43 44 45 44 44 43 43 43 43 43 43 42 41 41 41 40 40 40 39 39 38 38 37
42 43 43 43 44 44 45 45 46 46 45 44 43 42 42 42 42 43 43 43 43 43 43 42 41 40 40 39 39 38 38 38 38 38 37 36 36 35
40 41 43 43 43 43 42 42 43 42 41 40 40 40 41 41 41 41 41 42 42 42 41 39 38 38 38 37 36 36 36 36 36 36 35 34 33 33
37 39 40 41 41 41 41 41 40 39 37 37 37 38 39 39 39 39 39 40 41 40 39 38 37 37 36 36 35 34 33 33 33 33 33 31 31 30
38 39 39 39 38 38 38 38 37 37 36 35 36 37 37 37 37 37 37 37 37 36 36 36 36 36 35 35 34 33 32 30 30 30 29 29 29 28
36 37 37 36 36 36 36 35 35 35 34 34 35 36 36 35 35 35 35 35 34 33 33 34 35 36 35 34 33 32 31 29 29 27 25 24 25 24
34 34 35 35 35 35 34 34 34 34 34 34 35 35 35 34 34 34 33 33 33 32 32 33 33 34 33 32 31 30 29 27 27 25 23 22 22 21
32 32 32 33 33 33 33 33 32 33 33 34 34 34 34 33 32 31 31 31 30 30 30 30 31 31 31 30 29 28 26 25 24 23 21 21 20 19
30 31 30 31 30 31 31 31 31 32 32 33 33 32 32 31 30 30 30 29 28 28 28 28 28 28 27 27 26 24 23 23 21 20 19 18 18 17
29 29 29 29 30 30 29 29 30 31 31 31 31 30 29 29 29 28 27 26 26 26 26 26 26 25 25 25 23 21 21 20 18 17 16 15 15 15
28 28 28 28 29 29 29 29 29 29 29 29 29 28 28 27 27 25 25 25 25 25 24 24 23 23 23 22 21 19 18 17 16 16 16 15 14 14
27 28 28 28 28 28 28 28 28 28 28 28 27 27 26 25 24 23 23 23 24 24 23 22 22 22 21 19 18 17 17 16 15 15 15 15 14 14
Wind_Direction
271 272 273 275 276 278 279 280 281 281 280 280 279 281 282 283 283 284 284 285 286 286 285 286 286 286 287 288 289 290 291 292 292 292 292 293 293 293
271 272 274 275 277 277 279 280 281 281 280 280 279 280 282 283 284 285 285 285 285 284 284 285 285 285 286 288 288 289 290 292 292 292 292 292 292 292
272 273 274 275 277 278 279 280 281 280 280 280 279 280 283 284 284 285 285 285 285 284 283 284 284 285 286 287 288 289 289 291 292 292 292 292 292 292
271 272 273 275 277 277 278 279 280 280 281 280 280 281 282 284 285 286 286 285 284 283 282 283 284 286 285 286 287 288 290 291 292 292 292 292 292 292
270 271 273 275 276 277 278 279 279 279 279 279 280 280 281 283 285 286 286 286 284 282 282 283 284 285 285 286 287 289 290 291 291 292 292 293 293 293
269 271 273 274 277 278 278 278 278 278 279 279 280 279 280 282 284 285 286 286 283 282 282 282 283 284 286 287 288 289 291 291 291 291 293 293 294 293
269 271 272 274 276 277 278 277 277 278 280 280 280 280 280 282 283 285 286 285 283 283 283 283 284 284 286 288 289 289 290 291 292 292 293 293 294 293
271 271 272 274 275 276 276 277 278 279 280 280 280 280 281 283 283 284 285 284 284 284 285 286 286 286 287 288 289 289 290 292 292 292 292 293 293 292
271 271 273 274 275 276 276 277 278 278 279 280 280 280 281 282 283 285 285 285 285 286 286 287 287 288 290 290 290 290 291 292 291 292 293 292 293 290
272 272 272 273 273 275 276 276 276 278 280 280 281 281 282 283 284 286 285 284 286 288 288 289 289 291 291 292 291 291 290 291 291 292 292 291 291 290
272 272 272 272 273 274 275 276 276 277 279 280 281 282 282 283 284 285 284 284 285 288 289 290 290 290 291 291 290 290 290 290 291 291 292 291 291 289
274 273 272 273 273 274 275 276 277 278 279 280 281 283 283 283 284 285 284 284 285 286 288 290 291 291 291 292 291 291 291 292 292 291 291 292 291 290
273 272 272 273 275 275 276 277 277 278 278 279 280 282 283 284 284 284 284 285 286 287 289 289 291 292 292 293 293 293 292 292 292 291 292 292 291 291
272 272 273 275 276 276 278 279 279 278 279 280 280 282 284 285 285 285 286 286 286 289 289 289 291 292 293 294 295 295 293 292 293 294 293 292 292 292
273 274 275 276 276 277 278 279 279 278 279 279 281 283 283 284 285 286 288 288 288 289 290 290 291 293 294 295 295 295 294 293 294 295 294 292 292 292
274 275 276 276 276 278 279 279 278 277 277 280 282 283 283 284 285 287 289 289 289 289 290 291 292 293 294 294 294 294 294 294 293 294 292 291 293 292
273 274 274 276 277 278 278 278 277 277 278 280 283 284 284 284 285 288 290 289 288 287 289 290 293 293 293 293 293 294 294 294 294 293 290 290 291 291
275 275 275 275 277 279 277 276 277 277 278 280 284 286 287 286 287 288 288 287 288 288 289 291 293 294 294 294 293 293 293 292 293 291 287 288 289 290
276 276 277 278 278 278 278 276 276 277 279 283 286 288 288 287 288 288 288 288 288 289 291 293 295 295 294 294 294 292 292 293 292 289 287 288 289 290
275 277 277 278 278 278 278 278 278 280 282 285 288 289 288 288 288 289 289 289 289 290 292 295 296 297 295 295 294 292 293 293 291 288 288 289 291 292
274 275 277 277 278 278 279 280 280 281 284 286 287 288 288 288 288 289 289 290 291 292 294 296 297 297 296 295 292 290 291 291 290 288 289 289 289 291
273 274 277 279 279 280 281 281 282 283 285 286 287 287 286 287 288 287 289 291 293 294 295 296 298 298 297 294 291 288 290 291 289 289 289 289 291 293
273 275 277 280 280 281 282 282 282 284 286 286 285 286 285 287 288 288 289 292 294 294 295 294 296 298 298 294 290 289 291 290 284 281 282 285 290 293
Height
5693 5694 5695 5695 5694 5694 5693 5691 5691 5691 5692 5691 5689 5688 5685 5684 5683 5681 5679 5677 5674 5672 5669 5667 5664 5661 5658 5655 5652 5649 5645 5642 5638 5634 5630 5626 5621 5617
5681 5682 5682 5682 5682 5681 5680 5679 5677 5676 5677 5678 5677 5675 5673 5671 5670 5668 5666 5663 5661 5659 5656 5653 5651 5648 5645 5642 5640 5636 5633 5629 5625 5621 5617 5613 5608 5604
5668 5669 5669 5669 5669 5668 5668 5667 5665 5664 5663 5664 5663 5662 5660 5658 5656 5654 5652 5650 5648 5645 5643 5640 5638 5635 5632 5630 5627 5623 5620 5616 5612 5608 5603 5599 5595 5591
5656 5656 5657 5657 5657 5656 5655 5654 5653 5652 5650 5650 5650 5649 5647 5645 5643 5641 5638 5636 5634 5632 5629 5627 5625 5622 5620 5617 5614 5610 5606 5602 5598 5594 5590 5586 5582 5578
5643 5644 5645 5644 5644 5643 5643 5641 5640 5639 5638 5637 5637 5636 5634 5632 5630 5627 5625 5623 5620 5618 5616 5614 5612 5609 5606 5603 5600 5597 5593 5589 5585 5581 5576 5572 5568 5564
5631 5631 5632 5632 5631 5630 5629 5628 5627 5626 5625 5624 5623 5623 5621 5619 5617 5614 5612 5609 5607 5605 5603 5601 5599 5595 5592 5589 5587 5583 5579 5575 5571 5567 5563 5559 5555 5550
5619 5619 5619 5619 5618 5617 5616 5615 5615 5614 5612 5611 5610 5609 5608 5606 5603 5601 5598 5596 5594 5592 5590 5588 5585 5582 5579 5575 5572 5568 5565 5561 5557 5553 5549 5545 5541 5537
5606 5606 5606 5606 5605 5604 5603 5602 5602 5601 5599 5598 5597 5595 5594 5592 5590 5587 5585 5583 5582 5581 5577 5574 5571 5568 5565 5561 5558 5554 5550 5547 5544 5540 5536 5532 5528 5524
5593 5593 5593 5593 5592 5591 5590 5590 5589 5588 5587 5585 5584 5583 5581 5580 5577 5575 5573 5570 5569 5567 5564 5562 5558 5554 5551 5547 5543 5540 5537 5534 5530 5527 5523 5520 5516 5512
5579 5580 5580 5580 5579 5578 5578 5578 5577 5575 5574 5573 5572 5570 5568 5566 5564 5562 5560 5558 5557 5554 5552 5550 5546 5542 5538 5533 5530 5527 5524 5521 5518 5514 5511 5508 5505 5501
5567 5566 5567 5567 5566 5565 5566 5566 5565 5563 5561 5560 5558 5557 5555 5553 5551 5549 5547 5546 5545 5542 5539 5537 5534 5531 5527 5522 5518 5515 5511 5509 5506 5503 5500 5496 5493 5490
5554 5554 5554 5554 5554 5553 5553 5552 5551 5550 5549 5548 5546 5545 5543 5541 5539 5537 5535 5533 5532 5531 5528 5524 5522 5518 5516 5513 5508 5504 5500 5497 5494 5492 5488 5485 5482 5479
5542 5542 5542 5541 5541 5541 5540 5539 5538 5537 5536 5535 5534 5533 5531 5529 5527 5525 5523 5521 5519 5518 5516 5513 5510 5506 5503 5502 5498 5493 5490 5487 5484 5481 5477 5474 5472 5469
5530 5530 5530 5530 5530 5529 5528 5527 5525 5524 5523 5523 5522 5521 5519 5517 5515 5514 5511 5509 5507 5505 5503 5501 5499 5496 5493 5490 5487 5484 5480 5477 5474 5471 5468 5465 5462 5459
5519 5519 5519 5519 5518 5517 5516 5515 5514 5513 5512 5511 5511 5510 5508 5506 5504 5503 5500 5498 5496 5494 5492 5490 5488 5486 5483 5480 5477 5474 5471 5467 5464 5462 5459 5456 5454 5451
5508 5508 5508 5507 5507 5506 5505 5504 5503 5502 5501 5501 5500 5499 5497 5496 5494 5492 5490 5488 5486 5484 5482 5480 5477 5475 5472 5469 5466 5464 5460 5458 5456 5453 5450 5447 5445 5443
5497 5497 5497 5497 5496 5496 5495 5494 5493 5492 5491 5491 5490 5489 5487 5486 5484 5482 5480 5478 5477 5475 5473 5471 5468 5465 5462 5459 5457 5454 5451 5448 5446 5444 5442 5440 5438 5436
5487 5487 5487 5487 5486 5486 5485 5484 5483 5483 5482 5481 5480 5479 5477 5476 5474 5472 5470 5469 5467 5466 5464 5462 5459 5456 5453 5451 5448 5445 5443 5441 5439 5437 5435 5434 5432 5430
5478 5478 5477 5477 5477 5476 5475 5475 5474 5474 5473 5472 5471 5470 5468 5466 5464 5463 5461 5459 5458 5457 5455 5452 5450 5447 5445 5443 5441 5438 5436 5434 5432 5430 5429 5427 5426 5424
5469 5469 5468 5468 5467 5467 5466 5466 5466 5465 5464 5463 5462 5460 5458 5456 5455 5453 5452 5450 5449 5448 5446 5444 5441 5439 5437 5435 5433 5431 5428 5427 5425 5424 5423 5422 5420 5419
5461 5460 5460 5459 5459 5458 5458 5457 5457 5456 5455 5454 5453 5451 5450 5448 5446 5445 5443 5442 5441 5440 5438 5436 5434 5431 5429 5427 5425 5424 5422 5420 5419 5419 5418 5418 5417 5416
5452 5452 5452 5451 5450 5450 5450 5449 5448 5447 5447 5445 5444 5443 5441 5440 5438 5437 5436 5435 5433 5432 5430 5429 5427 5425 5423 5421 5419 5418 5417 5415 5414 5413 5413 5413 5413 5412
5444 5444 5443 5443 5442 5442 5441 5441 5440 5439 5438 5437 5436 5435 5434 5433 5431 5430 5429 5428 5426 5425 5423 5422 5420 5418 5416 5415 5413 5412 5412 5411 5410 5409 5409 5409 5408 5408